Colorado Springs, CO

2:21 PM MDT on May 24, 2017 (GMT -0600)
City Of Colorado Springs Municipal

Weather History for KCOS - October, 2011

Change the Weather History Date:

Saturday, October 29, 2011

  Actual Average Record
Temperature  
Mean Temperature 50 °F 45 °F  
Max Temperature 66 °F 59 °F 83 °F (1950)
Min Temperature 33 °F 32 °F -6 °F (1917)
Degree Days  
Heating Degree Days 15 20  
Month to date heating degree days 404 444  
Since 1 July heating degree days 520 634  
Cooling Degree Days 0 0  
Month to date cooling degree days 4 0  
Year to date cooling degree days 841 454  
Moisture  
Dew Point 17 °F    
Average Humidity 40    
Maximum Humidity 70    
Minimum Humidity 10    
Precipitation  
Precipitation 0.00 in 0.02 in 0.49 in (1961)
Month to date precipitation 0.87 0.78  
Year to date precipitation 15.59 15.76  
Snow  
Snow 0.00 in 0.20 in 4.90 in (1961)
Month to date snowfall 3.6 2.7  
Since 1 July snowfall 3.6 2.9  
Since 1 September snowfall 3.6 2.9  
Snow Depth 0.00 in    
Sea Level Pressure  
Sea Level Pressure 29.99 in    
Wind  
Wind Speed 10 mph (NNW)    
Max Wind Speed 24 mph    
Max Gust Speed 30 mph    
Visibility 10 miles    
Events      
T = Trace of Precipitation, MM = Missing Value Source: NWS Daily Summary

Daily Weather History Graph

Daily Weather History Graph

Search for Another Location

Airport or City:

Trip Planner

Search our weather history database for the weather conditions in past years. The results will help you decide how hot, cold, wet, or windy it might be!

Date:

Astronomy

Oct. 29, 2011 Rise Set
Actual Time 7:22 AM MDT 6:02 PM MDT
Civil Twilight 6:54 AM MDT 6:29 PM MDT
Nautical Twilight 6:23 AM MDT 7:00 PM MDT
Astronomical Twilight 5:52 AM MDT 7:31 PM MDT
Moon 10:44 AM MDT (10/29) 8:30 PM MDT (10/29)
Length of Visible Light 11h 34m
Length of Day
10h 39m
Waxing Crescent, 12% of the Moon is Illuminated
Oct 29
Waxing Crescent
Nov 2
First Quarter
Nov 10
Full
Nov 18
Last Quarter
Nov 24
New

Hourly Weather History & Observations

Time (MDT) Temp. Windchill Dew Point Humidity Pressure Visibility Wind Dir Wind Speed Gust Speed Precip Events Conditions
12:54 AM 36.0 °F 31.1 °F 26.1 °F 67% 30.14 in 10.0 mi NNE 5.8 mph - N/A   Clear
1:54 AM 35.6 °F 29.9 °F 24.8 °F 65% 30.13 in 10.0 mi NE 6.9 mph - N/A   Clear
2:54 AM 33.1 °F 26.9 °F 23.0 °F 66% 30.09 in 10.0 mi North 6.9 mph - N/A   Clear
3:54 AM 33.8 °F 29.6 °F 24.8 °F 70% 30.08 in 10.0 mi North 4.6 mph - N/A   Clear
4:54 AM 35.6 °F 32.8 °F 24.8 °F 65% 30.06 in 10.0 mi North 3.5 mph - N/A   Clear
5:54 AM 39.0 °F - 21.9 °F 50% 30.04 in 10.0 mi Calm Calm - N/A   Clear
6:54 AM 44.1 °F 41.5 °F 14.0 °F 30% 30.02 in 10.0 mi Variable 4.6 mph - N/A   Clear
7:54 AM 46.0 °F 40.2 °F 10.0 °F 23% 30.03 in 10.0 mi North 12.7 mph - N/A   Clear
8:54 AM 46.4 °F 40.7 °F 10.4 °F 23% 30.07 in 10.0 mi NNW 12.7 mph - N/A   Clear
9:54 AM 52.0 °F - 9.0 °F 18% 30.00 in 10.0 mi NW 9.2 mph - N/A   Clear
10:54 AM 61.0 °F - 8.1 °F 12% 29.96 in 10.0 mi WNW 3.5 mph - N/A   Clear
11:54 AM 61.0 °F - 18.0 °F 19% 29.95 in 10.0 mi South 9.2 mph - N/A   Clear
12:54 PM 62.1 °F - 8.1 °F 12% 29.92 in 10.0 mi SSE 6.9 mph - N/A   Clear
1:54 PM 64.0 °F - 7.0 °F 11% 29.88 in 10.0 mi South 9.2 mph - N/A   Clear
2:54 PM 64.0 °F - 9.0 °F 12% 29.88 in 10.0 mi SSE 11.5 mph - N/A   Clear
3:54 PM 64.9 °F - 15.1 °F 15% 29.87 in 10.0 mi West 24.2 mph 29.9 mph N/A   Clear
4:54 PM 63.0 °F - 16.0 °F 16% 29.88 in 10.0 mi WNW 19.6 mph 28.8 mph N/A   Clear
5:54 PM 59.0 °F - 15.8 °F 19% 29.99 in 10.0 mi WNW 13.8 mph 20.7 mph N/A   Clear
6:54 PM 55.9 °F - 16.0 °F 21% 29.95 in 10.0 mi North 13.8 mph - N/A   Clear
7:54 PM 53.1 °F - 18.0 °F 25% 29.98 in 10.0 mi NNW 11.5 mph - N/A   Clear
8:54 PM 46.9 °F - 19.9 °F 34% 30.00 in 10.0 mi North 9.2 mph - N/A   Clear
9:54 PM 46.0 °F 39.9 °F 21.9 °F 39% 30.00 in 10.0 mi NW 13.8 mph - N/A   Clear
10:54 PM 50.0 °F - 19.0 °F 29% 29.96 in 10.0 mi North 13.8 mph - N/A   Clear
11:54 PM 48.9 °F - 19.0 °F 31% 29.98 in 10.0 mi NNW 10.4 mph - N/A   Clear